Heute – Wetterdaten der letzten 3 Stunden im 5 Min. Intervall

Wetterdaten der letzten 3 Stunden im 5 Min. Intervall
DatumAussentemperaturLuftdruckLuftfeuchtigkeitWindstärke Regen
26.04.19, 12:10 12.6 °C 1013.7 hPa 78 % 5.0 km/h 1.0 mm
26.04.19, 12:05 12.4 °C 1013.7 hPa 78 % 1.8 km/h 1.0 mm
26.04.19, 11:55 12.1 °C 1013.7 hPa 81 % 3.2 km/h 1.0 mm
26.04.19, 11:50 11.8 °C 1013.6 hPa 81 % 1.8 km/h 1.0 mm
26.04.19, 11:45 11.7 °C 1013.5 hPa 82 % 1.8 km/h 1.0 mm
26.04.19, 11:40 11.6 °C 1013.6 hPa 82 % 1.8 km/h 1.0 mm
26.04.19, 11:35 11.4 °C 1013.6 hPa 83 % 0.0 km/h 1.0 mm
26.04.19, 11:30 11.4 °C 1013.4 hPa 83 % 1.8 km/h 1.0 mm
26.04.19, 11:25 11.3 °C 1013.6 hPa 83 % 0.0 km/h 1.0 mm
26.04.19, 11:20 11.2 °C 1013.5 hPa 84 % 1.8 km/h 1.0 mm
26.04.19, 11:15 11.2 °C 1013.4 hPa 84 % 1.8 km/h 1.0 mm
26.04.19, 11:10 11.2 °C 1013.6 hPa 85 % 8.6 km/h 1.0 mm
26.04.19, 11:05 11.1 °C 1013.6 hPa 86 % 0.0 km/h 1.0 mm
26.04.19, 10:55 10.9 °C 1013.5 hPa 86 % 5.0 km/h 1.0 mm
26.04.19, 10:50 10.8 °C 1013.6 hPa 85 % 1.8 km/h 1.0 mm
26.04.19, 10:45 10.9 °C 1013.4 hPa 86 % 3.2 km/h 1.0 mm
26.04.19, 10:40 10.9 °C 1013.4 hPa 86 % 6.8 km/h 1.0 mm
26.04.19, 10:35 10.8 °C 1013.2 hPa 86 % 1.8 km/h 1.0 mm
26.04.19, 10:30 10.8 °C 1013.3 hPa 86 % 16.9 km/h 1.0 mm
26.04.19, 10:25 10.7 °C 1013.1 hPa 87 % 0.0 km/h 1.0 mm
26.04.19, 10:20 10.7 °C 1012.8 hPa 87 % 0.0 km/h 1.0 mm
26.04.19, 10:15 10.6 °C 1012.9 hPa 87 % 6.8 km/h 1.0 mm
26.04.19, 10:10 10.5 °C 1013.0 hPa 87 % 1.8 km/h 1.0 mm
26.04.19, 10:05 10.4 °C 1013.1 hPa 88 % 6.8 km/h 1.0 mm
26.04.19, 09:55 10.2 °C 1013.1 hPa 88 % 0.0 km/h 1.0 mm
26.04.19, 09:50 10.1 °C 1013.1 hPa 88 % 1.8 km/h 1.0 mm
26.04.19, 09:45 10.1 °C 1013.1 hPa 88 % 3.2 km/h 1.0 mm
26.04.19, 09:40 10.0 °C 1013.0 hPa 88 % 1.8 km/h 1.0 mm
26.04.19, 09:35 9.9 °C 1012.9 hPa 89 % 3.2 km/h 1.0 mm
26.04.19, 09:30 9.9 °C 1012.9 hPa 89 % 0.0 km/h 1.0 mm
26.04.19, 09:25 9.9 °C 1012.9 hPa 89 % 3.2 km/h 1.0 mm
26.04.19, 09:20 9.9 °C 1012.8 hPa 89 % 0.0 km/h 1.0 mm
26.04.19, 09:15 9.8 °C 1012.7 hPa 89 % 0.0 km/h 1.0 mm